www.pogodaiklimat.ru

Погода и климат >> Архив погоды >> Алжир >> Adrar


ПОГОДА в Adrar

  • Прогноз погоды в Adrar
  • Монитор погоды в Adrar
  • Климат города

АРХИВ ПОГОДЫ в Adrar

Время (UTC), дата Ветер
(напр.,м/с)
 
Видим.   Явления Облачность Т
(С)
Тd
(С)
f
(%)
Тe
(С)
Тes
(С)
Комфортность P
(гПа)
Po
(гПа)
Тmin
(С)
Tmax
(С)
R
(мм)
R24
(мм)
S
(см)
18 16.06 ЮЗ 6 8000 м 5/3 1500 м
[Cu med, cong Ci sp]
+40.6 1008.6 1009.0 +42.0
21 16.06 Ю 3 8000 м 5/3 1500 м
[Cu med, cong Ci sp]
+34.5 +29 +29 жарко 1009.9 1010.0
00 17.06 ЮЗ 3 8000 м 5/3 1500 м
[Cu med, cong Ci sp]
+30.0 +25 +25 комфорт 1010.3 1010.0
03 17.06 З 4 8000 м 3/0
[Ci sp]
+28.7 +24 +24 комфорт 1009.6 1010.0
06 17.06 С 3 8000 м 3/0
[Ci sp]
+25.7 -6.4 11 +23 +24 комфорт 1011.0 1011.0 +25.3
09 17.06 СЗ 6 8000 м 3/0
[Ci sp]
+35.0 +3.9 14 +32 +37 жарко 1013.3 1013.0
12 17.06 СЗ 4 10 км 3/0
[Ci sp]
+39.1 +34 +49 очень
жарко
1012.3 1012.0
15 17.06 З 6 10 км ясно +42.0 +37 +43 очень
жарко
1010.5 1011.0
18 17.06 З 6 10 км ясно +41.0 +36 +36 очень
жарко
1010.5 1011.0 +42.3
21 17.06 З 4 10 км ясно +35.0 +30 +30 жарко 1012.2 1012.0
00 18.06 СЗ 3 10 км ясно +32.4 -1.5 11 +29 +29 жарко 1012.3 1012.0
03 18.06 штиль 0 10 км ясно +28.5 -2.4 13 +26 +26 жарко 1011.6 1012.0
06 18.06 СЗ 3 10 км ясно +26.0 -2.6 15 +24 +24 комфорт 1012.7 1013.0 +25.5
09 18.06 СЗ 10 8000 м пыльный позёмок ясно +37.5 1013.4 1013.0
12 18.06 СЗ 9 9000 м пыльный позёмок ясно +41.5 1012.3 1012.0
15 18.06 СЗ 8 8000 м ясно +43.4 1010.1 1010.0
18 18.06 С 5 8000 м ясно +42.1 1009.3 1009.0 +43.7
21 18.06 СЗ 5 10 км 3/0
[Ci sp]
+36.0 +31 +31 жарко 1010.2 1010.0
00 19.06 СЗ 3 10 км 3/0
[Ci sp]
+34.0 -0.6 11 +30 +30 жарко 1010.2 1010.0
03 19.06 С 3 10 км 3/0
[Ci sp]
+31.0 +0.6 14 +28 +28 жарко 1008.9 1009.0
06 19.06 СВ 2 10 км 3/0
[Ci sp]
+29.8 +0.6 15 +27 +28 жарко 1010.0 1010.0 +28.0
09 19.06 СЗ 8 10 км 5/0
[Ci sp]
+38.0 +33 +35 жарко 1010.5 1011.0
12 19.06 СЗ 7 10 км 5/0
[Ci sp]
+42.5 +37 +43 очень
жарко
1009.4 1009.0
15 19.06 СЗ 10 8000 м пыльный позёмок 4/0
[Ci sp]
+43.8 +39 +39 очень
жарко
1006.8 1007.0
18 19.06 СЗ 9 7000 м пыльный позёмок 3/0
[Ci sp]
+42.2 +37 +37 очень
жарко
1006.1 1006.0 +44.2
21 19.06 СЗ 4 10 км 1/0
[Ci sp]
+35.4 +30 +30 жарко 1007.3 1007.0
00 20.06 СВ 3 10 км ясно +31.2 +26 +26 жарко 1007.4 1007.0
03 20.06 СВ 3 10 км ясно +28.4 +23 +23 комфорт 1007.7 1008.0
06 20.06 В 6 10 км 3/0
[Ci sp]
+26.5 -0.3 17 +24 +25 комфорт 1009.3 1009.0 +26.4
09 20.06 ЮВ 9 10 км 4/0
[Ci sp]
+36.8 +1.8 11 +33 +35 жарко 1009.9 1010.0
12 20.06 В 5 10 км 1/0
[Ci sp]
+41.0 1009.7 1010.0
15 20.06 СЗ 3 10 км 5/0
[Ci sp]
+42.8 1007.8 1008.0
18 20.06 штиль 0 10 км 3/0
[Ci sp]
+42.0 1007.0 1007.0 +43.1
21 20.06 СВ 4 10 км 3/0
[Ci sp]
+36.5 1008.1 1008.0
00 21.06 В 6 10 км 3/0
[Ci sp]
+31.2 -3.4 10 +28 +28 жарко 1008.6 1009.0
03 21.06 В 7 10 км 3/0
[Ci sp]
+28.5 -2.4 13 +26 +26 жарко 1008.1 1008.0
06 21.06 В 5 10 км 4/0
[Ci sp]
+27.0 -0.4 17 +25 +25 комфорт 1008.8 1009.0 +26.5
09 21.06 ЮВ 12 2500 м пыльный позёмок 5/0
[Ac trans Ci sp]
+34.8 +1.6 12 +31 +31 жарко 1009.0 1009.0
12 21.06 ЮВ 11 3000 м пыльный позёмок 5/0
[Ac trans Ci sp]
+40.2 +35 +35 очень
жарко
1008.7 1009.0
15 21.06 Ю 7 5000 м 5/0
[Ac trans Ci sp]
+42.5 +37 +40 очень
жарко
1007.1 1007.0
18 21.06 Ю 6 6000 м 5/0
[Ac trans Ci sp]
+41.8 +37 +37 очень
жарко
1005.9 1006.0 +43.6
21 21.06 В 7 7000 м 3/0 2000 м
[Ci sp]
+36.2 +31 +31 жарко 1006.7 1007.0
00 22.06 ЮВ 6 7000 м 3/0
[Ci sp]
+31.4 -5.0 9 +28 +28 жарко 1007.2 1007.0
03 22.06 В 7 7000 м 3/0
[Ci sp]
+29.2 -3.7 11 +26 +26 жарко 1006.2 1006.0
06 22.06 В 8 8000 м 3/0
[Ci sp]
+27.4 -1.1 15 +25 +25 комфорт 1007.7 1008.0 +27.0
09 22.06 В 15 700 м пыльный позёмок 3/0
[Ci sp]
+36.6 -1.1 9 +33 +33 жарко 1008.2 1008.0
12 22.06 ЮВ 14 700 м пыльный позёмок 3/0
[Ci sp]
+42.0 1006.8 1007.0
15 22.06 ЮВ 11 5000 м пыльный позёмок 3/0
[Ci sp]
+43.3 1004.7 1005.0
18 22.06 ЮВ 7 8000 м ясно +43.0 +3.4 9 +40 +40 очень
жарко
1003.7 1004.0 +44.0
21 22.06 ЮВ 3 10 км ясно +34.0 -3.3 9 +30 +30 жарко 1005.8 1006.0
00 23.06 В 5 10 км ясно +28.8 +24 +24 комфорт 1006.2 1006.0
03 23.06 ЮВ 7 10 км ясно +28.5 +24 +24 комфорт 1006.3 1006.0
06 23.06 В 5 10 км ясно +25.0 -5.7 13 +23 +23 комфорт 1007.6 1008.0 +24.5
09 23.06 В 15 800 м пыльный позёмок ясно +34.5 -1.5 10 +31 +31 жарко 1008.4 1008.0
12 23.06 ЮВ 12 1000 м пыльный позёмок 3/0
[Ci sp]
+43.3 +38 +38 очень
жарко
1007.4 1007.0
15 23.06 ЮВ 10 2000 м пыльный позёмок 3/0
[Ci sp]
+44.8 +40 +40 очень
жарко
1004.9 1005.0

 

Местоположение метеостанции Adrar (Алжир): широта 27.88 долгота -0.18 высота над уровнем моря 283 м.

В архиве по умолчанию представлена погода в Adrar за последнюю неделю. Архивные данные за месяц целиком и за предыдущие месяцы, начиная с января 2011 года, Вы можете получить, выбрав интересующий диапазон дат из раскрывающегося списка и нажав кнопку "Ввод!".


*Определитесь, кто Вы:
робот инопланетянин человек

Внимание! Время в таблицах - всемирное. Для получения местного времени необходимо прибавить поправку, которая в Adrar равна 1 ч.

Смотрите также архив погоды в соседних городах и на ближайших метеорологических станциях:

Погода в Timimoun (Алжир) (159 км)
Погода в In-Salah (Алжир) (274 км)
Погода в Beni Abbes (Алжир) (316 км)
Погода в El-Golea (Алжир) (421 км)
Погода в Bechar (Алжир) (450 км)
Погода в Arak (Алжир) (490 км)
Погода в Abankor (Алжир) (520 км)
Погода в Ain Sefra (Алжир) (545 км)
Погода в In Ziza (Алжир) (561 км)
Погода в Moulay Lachen (Алжир) (594 км)

Пояснения к столбцам:

Ветер - указаны скорость ветра в м/с - средняя за 10 мин, порывы в срок и между сроками (в фигурных скобках) и направление, откуда дует ветер: С - северный, СВ - северо-восточный, В - восточный, ЮВ - юго-восточный, Ю - южный, ЮЗ - юго-западный, З - западный, СЗ - северо-западный.
Видимость - горизонтальная дальность видимости в метрах или километрах. При видимости от 1 до 10 км при отсутствии осадков обычно наблюдается дымка, при ухудшении видимости до 1 км и менее - туман. В сухую погоду видимость может ухудшаться дымом, пылью или мглою.
Явления - указаны атмосферные явления, наблюдавшиеся в срок или в последний час перед сроком; фигурными скобками обозначены явления, наблюдавшиеся между сроками (за 1-3 часа до срока); квадратными скобками обозначены град или гололедные отложения с указанием их диаметра в мм.
Облачность - указаны через наклонную черту общая и нижняя облачность в баллах и высота нижней границы облаков в метрах; квадратными скобками обозначены формы облаков: Ci - перистые, Cs - перисто-слоистые, Cc - перисто-кучевые, Ac - высококучевые, As - высокослоистые, Sc - слоисто-кучевые, Ns - слоисто-дождевые, Cu - кучевые, Cb - кучево-дождевые. Подробнее классификацию облаков см. в Атласе облаков (PDF).
T - Температура воздуха - температура, измеренная на высоте 2 м над землей.
Td - Температура точки росы - температура, при понижении до которой содержащийся в воздухе водяной пар достигнет насыщения.
f - Относительная влажность воздуха - влажноcть воздуха, измеренная на высоте 2 м над землей.
Te - Эффективная температура - температура, которую ощущает одетый по сезону человек в тени. Характеристика душности погоды. При расчете учитывается влияние влажности воздуха и скорости ветра на теплоощущения человека.
Tes - Эффективная температура на солнце - температура, которую ощущает человек, с поправкой на солнечный нагрев. Характеристика знойности погоды. Зависит от высоты солнца над горизонтом, облачности и скорости ветра. Ночью, в пасмурную погоду, а также при ветре 12 м/с и более поправка равна нулю.
P - Атмосферное давление - приведенное к уровню моря атмосферное давление.
Po - Атмосферное давление - измеренное на уровне метеостанции атмосферное давление.
Tmin - Минимальная температура - минимум температуры воздуха на высоте 2 м над землей.
Tmax - Максимальная температура - максимум температуры воздуха на высоте 2 м над землей.
R - Количество осадков - Количество выпавших осадков за период времени, мм. При наведении курсора мыши на число - период времени, за который выпало указанное количество осадков.
R24 - Количество осадков - Количество выпавших осадков за 24 часа, мм.
S - Снежный покров - Высота снежного покрова, см. При наведении курсора мыши на число - состояние снежного покрова и степень покрытия местности в баллах.